MXY9455 KPWM-KPVD

Flight info

Callsign MXY9455
Flight time N/A
Altitude 16000
Route NUBLE4 JJIMY
Aircraft E190/M-SDE3GILORVW/S

Departure

Time N/A
Airport Portland International Jetport (KPWM)

Arrival

Time 2026-05-07 22:44
Airport Rhode Island T. F. Green International Airport (KPVD)
Time Latitude Longitude Altitude Speed Heading
2026-05-07 22:26 42.42723 -71.15127 16036 ft 338 kts 201°
2026-05-07 22:26 42.40320 -71.15341 16061 ft 353 kts 186°
2026-05-07 22:27 42.37875 -71.15086 16056 ft 355 kts 185°
2026-05-07 22:27 42.35430 -71.14871 16033 ft 354 kts 186°
2026-05-07 22:27 42.32972 -71.14653 16036 ft 354 kts 186°
2026-05-07 22:27 42.30549 -71.14446 16034 ft 354 kts 186°
2026-05-07 22:28 42.28057 -71.14231 16041 ft 354 kts 186°
2026-05-07 22:28 42.25628 -71.14018 16034 ft 341 kts 186°
2026-05-07 22:28 42.23380 -71.13813 16054 ft 317 kts 187°
2026-05-07 22:28 42.21246 -71.13627 16000 ft 298 kts 187°
2026-05-07 22:29 42.19235 -71.13450 15950 ft 281 kts 188°
2026-05-07 22:29 42.17324 -71.13287 15747 ft 271 kts 188°
2026-05-07 22:29 42.15470 -71.13128 15483 ft 264 kts 188°
2026-05-07 22:29 42.13655 -71.12975 15210 ft 258 kts 189°
2026-05-07 22:30 42.11880 -71.12826 14921 ft 254 kts 189°
2026-05-07 22:30 42.10138 -71.12679 14587 ft 251 kts 189°
2026-05-07 22:30 42.08407 -71.12534 14258 ft 249 kts 189°
2026-05-07 22:30 42.06680 -71.12392 13890 ft 248 kts 188°
2026-05-07 22:31 42.04954 -71.12247 13487 ft 248 kts 189°
2026-05-07 22:31 42.03240 -71.12100 13090 ft 247 kts 188°
2026-05-07 22:31 42.01513 -71.11959 12638 ft 250 kts 188°
2026-05-07 22:31 41.99765 -71.11814 12163 ft 253 kts 187°
2026-05-07 22:32 41.97991 -71.11668 11677 ft 258 kts 186°
2026-05-07 22:32 41.96185 -71.11517 11168 ft 262 kts 186°
2026-05-07 22:32 41.94349 -71.11364 10670 ft 267 kts 185°
2026-05-07 22:32 41.92471 -71.11211 10036 ft 278 kts 184°
2026-05-07 22:33 41.90480 -71.11048 9335 ft 290 kts 182°
2026-05-07 22:33 41.88494 -71.10874 9006 ft 284 kts 182°
2026-05-07 22:33 41.86527 -71.10711 8611 ft 284 kts 182°
2026-05-07 22:33 41.84553 -71.10546 8227 ft 282 kts 182°
2026-05-07 22:34 41.82646 -71.10389 7882 ft 281 kts 181°
2026-05-07 22:34 41.80699 -71.10230 7509 ft 280 kts 181°
2026-05-07 22:34 41.78754 -71.10070 7140 ft 280 kts 180°
2026-05-07 22:34 41.76810 -71.09913 6768 ft 279 kts 181°
2026-05-07 22:35 41.74888 -71.10041 6401 ft 275 kts 189°
2026-05-07 22:35 41.72983 -71.10268 6019 ft 274 kts 187°
2026-05-07 22:35 41.71099 -71.10464 5670 ft 272 kts 187°
2026-05-07 22:35 41.69203 -71.10656 5244 ft 273 kts 187°
2026-05-07 22:36 41.67307 -71.10844 4877 ft 272 kts 187°
2026-05-07 22:36 41.65433 -71.11027 4526 ft 270 kts 187°
2026-05-07 22:36 41.63564 -71.11205 4151 ft 268 kts 186°
2026-05-07 22:36 41.61781 -71.11736 3769 ft 261 kts 211°
2026-05-07 22:37 41.60509 -71.13333 3486 ft 248 kts 240°
2026-05-07 22:37 41.59676 -71.15317 3176 ft 244 kts 244°
2026-05-07 22:37 41.58818 -71.17266 2847 ft 244 kts 243°
2026-05-07 22:37 41.57952 -71.19195 2516 ft 240 kts 242°
2026-05-07 22:38 41.57103 -71.21055 2284 ft 231 kts 241°
2026-05-07 22:38 41.56402 -71.22898 2029 ft 217 kts 257°
2026-05-07 22:38 41.56463 -71.24774 1895 ft 196 kts 290°
2026-05-07 22:38 41.57149 -71.26220 1866 ft 175 kts 316°
2026-05-07 22:39 41.58041 -71.27204 1802 ft 160 kts 320°
2026-05-07 22:39 41.58889 -71.28087 1654 ft 150 kts 320°
2026-05-07 22:39 41.59686 -71.28915 1474 ft 146 kts 320°
2026-05-07 22:39 41.60471 -71.29737 1290 ft 143 kts 319°
2026-05-07 22:40 41.61249 -71.30555 1094 ft 141 kts 320°
2026-05-07 22:40 41.61998 -71.31357 1080 ft 135 kts 318°
2026-05-07 22:40 41.62731 -71.32155 1045 ft 137 kts 318°
2026-05-07 22:40 41.63031 -71.32483 984 ft 140 kts 318°
2026-05-07 22:41 41.63792 -71.33290 839 ft 140 kts 320°
2026-05-07 22:41 41.64551 -71.34099 766 ft 138 kts 320°
2026-05-07 22:41 41.65291 -71.34900 786 ft 133 kts 319°
2026-05-07 22:41 41.66018 -71.35674 885 ft 136 kts 320°
2026-05-07 22:42 41.66778 -71.36446 910 ft 136 kts 320°
2026-05-07 22:42 41.67534 -71.37223 850 ft 137 kts 318°
2026-05-07 22:42 41.68279 -71.38034 777 ft 140 kts 320°
2026-05-07 22:42 41.68786 -71.38564 763 ft 138 kts 320°
2026-05-07 22:43 41.69556 -71.39381 653 ft 146 kts 319°
2026-05-07 22:43 41.70354 -71.40236 472 ft 144 kts 320°
2026-05-07 22:43 41.71116 -71.41055 277 ft 140 kts 320°
2026-05-07 22:43 41.71866 -71.41829 88 ft 129 kts 321°
2026-05-07 22:44 41.72488 -71.42499 55 ft 93 kts 321°
2026-05-07 22:44 41.72864 -71.42898 56 ft 39 kts 322°
2026-05-07 22:44 41.72897 -71.43074 59 ft 4 kts 212°
2026-05-07 22:45 41.72875 -71.43091 58 ft 8 kts 211°
2026-05-07 22:45 41.72798 -71.43157 65 ft 18 kts 213°
2026-05-07 22:45 41.72718 -71.43227 61 ft 9 kts 213°
2026-05-07 22:45 41.72693 -71.43272 64 ft 5 kts 284°
2026-05-07 22:46 41.72723 -71.43306 64 ft 6 kts 318°
2026-05-07 22:46 41.72736 -71.43323 64 ft 1 kts 315°
2026-05-07 22:46 41.72737 -71.43324 64 ft 0 kts 315°